Location: Hillsboro
(38.3483°N, 97.1938°W)
Time: 13:56:35
(UTC-05:00)

Daily predictions for brighter satellites

Satellite Brightness Start Highest point End
(mag) Time Altitude Azimuth Time Altitude Azimuth Time Altitude Azimuth
Cosmos 1553 Rocket 4.2 21:18:02 10° N 21:24:20 57° E 21:30:32 10° SSE
Cosmos 1151 Rocket 4.2 21:31:12 10° NNE 21:34:51 26° ENE 21:38:31 10° SE
YAOGAN 11 4.2 21:31:11 10° S 21:35:29 82° WSW 21:39:52 10° NNW
CZ-2C R/B 0.2 21:34:46 10° SSE 21:36:17 37° ENE 21:37:52 10° N
Cosmos 1538 Rocket 4.1 21:39:44 10° NNW 21:45:06 87° ENE 21:50:29 10° SSE
H-2A R/B 2.2 21:48:46 10° SSE 21:53:17 83° ENE 21:57:50 10° NNW
Cosmos 2219 4.0 21:48:59 10° SSE 21:54:01 32° ESE 21:59:03 10° NE
CZ-4B R/B 4.4 21:49:38 10° NE 21:54:17 31° E 21:58:43 11° SSE
Meteor 2-20 4.4 21:49:46 10° S 21:55:52 72° E 22:01:59 10° NNE
Cosmos 1441 Rocket 3.4 21:53:08 10° SSW 21:56:55 73° W 22:00:41 10° N
Cosmos 1328 Rocket 3.9 21:53:56 10° NNW 21:58:22 68° W 22:02:45 10° S
CZ-4 SHROUD 3.8 21:57:27 16° SE 21:59:38 41° ENE 22:02:36 10° N
Cosmos 1726 4.3 21:59:39 10° NE 22:01:24 13° ENE 22:02:46 11° E
Cosmos 2322 4.1 21:58:18 10° NNW 22:03:53 50° ENE 22:08:14 16° SE
USA 229 DEB 3.9 22:00:13 10° SW 22:07:09 79° WNW 22:14:11 10° NNE
USA 229 3.9 22:00:20 10° SW 22:07:15 79° WNW 22:14:17 10° NNE
Cosmos 2322 Rocket 2.9 22:02:38 10° NNW 22:08:03 51° WSW 22:13:27 10° S
Cosmos 773 Rocket 4.0 22:03:14 10° NNW 22:08:28 81° ENE 22:12:51 15° SSE
OAO 2 Rocket 4.5 22:04:40 10° SSW 22:08:51 24° SSE 22:11:37 16° ESE
Cosmos 2228 Rocket 4.5 22:05:47 10° NNW 22:09:56 38° W 22:14:05 10° SSW
S3M 4.5 22:04:24 10° NNW 22:10:25 60° W 22:16:25 10° S
SL-16 R/B 3.1 22:12:43 10° NW 22:18:07 45° WSW 22:23:27 10° S
ATLAS CENTAUR R/B 3.7 22:15:11 10° WNW 22:18:17 19° WSW 22:21:12 10° SSW
Cosmos 2360 Rocket 2.3 22:12:43 10° NNW 22:18:22 68° ENE 22:22:22 20° SE
Cosmos 1908 3.3 22:14:31 10° N 22:18:25 80° W 22:21:34 15° S
NOSS 3-1 (A) 3.9 22:21:40 10° S 22:26:56 37° ESE 22:32:39 10° NE
Cosmos 1939 Rocket 4.1 22:23:44 10° SSW 22:27:26 38° W 22:31:06 10° NNW
Aureole 3 4.5 22:23:31 10° S 22:30:33 81° E 22:36:13 10° N
MetOp-B 4.1 22:26:49 18° SSE 22:30:56 89° E 22:36:20 10° NNW
Cosmos 1674 3.7 22:29:30 10° SSW 22:33:10 46° W 22:36:54 10° N
Meteor 1-4 Rocket 4.2 22:30:41 10° NNE 22:33:31 20° ENE 22:34:10 19° E
Delta 2 Rocket 3.0 22:30:55 10° WSW 22:34:19 48° S 22:35:08 38° SE
SPOT 5 3.2 22:34:33 16° S 22:38:04 56° W 22:42:44 10° NNW
Envisat 3.9 22:33:43 10° S 22:38:31 45° W 22:43:24 10° NNW
Tiangong 1 2.7 22:37:57 10° SW 22:39:15 21° SSW 22:39:15 21° SSW
SL-08 RB Rocket 3.9 22:40:45 30° SE 22:42:42 53° ENE 22:47:04 10° N
Cosmos 2227 Rocket 3.5 22:42:29 20° ESE 22:42:48 20° E 22:46:51 10° NE
Cosmos 1437 3.8 22:41:55 13° SSW 22:44:39 45° WNW 22:47:49 10° N
Cosmos 1300 2.8 22:41:07 10° N 22:44:56 58° E 22:46:04 39° SE
USA 245 2.2 22:48:00 72° SSW 22:48:13 81° W 22:50:39 10° NNW
ATLAS 2AS CENTAUR R/B 3.8 22:48:09 23° ESE 22:49:35 25° ESE 22:55:38 10° NE
Cosmos 2112 Rocket 4.0 22:45:10 10° NNW 22:50:25 82° WSW 22:53:12 29° S
SL-23 DEB 3.8 22:45:54 10° NW 22:50:34 69° NE 22:51:39 40° ESE
Cosmos 2298 Rocket 4.0 22:48:24 20° S 22:52:02 66° ESE 22:57:19 10° NNE
Cosmos 2333 Rocket 3.7 22:47:45 10° N 22:52:27 25° NE 22:55:11 18° E
H-2A R/B 4.2 22:50:08 10° SW 22:54:31 36° SSE 23:14:48 10° E
DELTA 2 R/B (1) 3.5 22:49:03 10° WNW 22:54:35 70° SSW 22:57:09 32° SE
CARTOSAT-1 4.4 22:54:18 30° ESE 22:55:23 35° ENE 22:59:19 10° N
Sich 1 3.0 22:56:58 36° S 22:58:42 73° E 23:03:07 10° NNE
Cosmos 2151 4.4 22:55:38 10° SW 22:59:29 36° WNW 23:03:23 10° N
YAOGAN 6 3.5 22:57:57 26° SSW 22:59:32 43° W 23:03:01 10° NNW
Cosmos 1633 Rocket 3.0 22:58:07 38° SSE 22:59:41 70° E 23:04:03 10° NNE
Cosmos 1937 Rocket 3.8 22:58:30 35° SSE 23:00:06 46° ESE 23:05:04 10° NNE
COSMOS 2428 2.7 22:58:42 10° NNW 23:04:25 79° ENE 23:06:47 37° SSE
CZ-4C R/B 2.9 23:05:06 63° ESE 23:05:25 68° ENE 23:08:52 10° N
Cosmos 2315 Rocket 4.3 23:00:09 10° NNW 23:06:15 62° W 23:10:26 21° SSW
Cosmos 1455 3.7 23:04:37 10° NNE 23:07:33 23° ENE 23:07:33 23° ENE
Cosmos 2297 Rocket 3.4 23:10:25 24° E 23:10:25 24° E 23:14:35 10° NE
ATLAS 3B R/B 4.5 23:05:36 10° NNW 23:10:53 22° NE 23:15:56 10° E
H-2A R/B 2.2 23:10:13 39° SE 23:12:06 64° ENE 23:17:28 10° N
Cosmos 990 Rocket 4.3 23:13:38 41° ESE 23:14:17 43° ESE 23:19:08 10° NNE
NOSS 3-1 (C) 3.5 23:08:41 10° SW 23:14:30 74° NW 23:20:58 10° NNE
Landsat 7 3.7 23:18:17 47° S 23:19:41 86° W 23:24:28 10° NNW
Cosmos 2219 Rocket 2.5 23:15:15 10° NNW 23:20:43 52° ENE 23:22:26 39° ESE
ARGOS 3.7 23:18:34 28° SSW 23:21:13 53° W 23:26:30 10° NNW
Cosmos 2237 4.4 23:20:21 10° NNW 23:26:01 65° WSW 23:28:03 39° S
BREEZE-M DEB (TANK) 4.3 23:25:25 10° NNW 23:27:13 20° NNE 23:27:41 19° NE
SAR-Lupe-2 3.7 23:31:37 68° NNE 23:31:37 68° NNE 23:34:55 10° N
Cosmos 292 Rocket 3.6 23:26:38 10° NNW 23:31:25 80° ENE 23:32:10 62° SE
Spot 4 3.9 23:31:38 56° SE 23:32:29 69° ENE 23:37:19 10° N
Cosmos 1703 3.5 23:34:08 58° WSW 23:34:34 64° W 23:38:28 10° N
Nadezhda 1 Rocket 3.9 23:29:18 10° N 23:35:24 76° E 23:37:15 47° SSE
Terra 1.7 23:34:39 59° S 23:35:33 85° WSW 23:40:21 10° NNW
Cosmos 1980 4.1 23:30:40 10° NNW 23:36:10 50° ENE 23:37:35 41° ESE
Cosmos 1726 3.3 23:33:27 10° NNW 23:36:55 35° W 23:37:27 33° WSW
Cosmos 1271 Rocket 2.9 23:34:37 10° NNW 23:38:24 61° W 23:38:28 61° WSW
Cosmos 1898 Rocket 4.2 23:36:30 19° SW 23:40:01 51° WNW 23:45:05 10° N
COSMOS 2455 4.3 23:38:11 10° N 23:43:18 28° NE 23:45:49 21° E
Spot 2 4.4 23:39:26 10° NNE 23:44:35 85° WNW 23:45:45 54° SSW
Cosmos 1745 Rocket 4.1 23:42:06 33° SSW 23:45:02 71° W 23:51:14 10° N
Cosmos 1125 Rocket 4.3 23:46:29 35° E 23:46:29 35° E 23:50:48 10° NE
Cosmos 2333 4.5 23:40:31 10° NNW 23:46:09 60° WSW 23:47:37 45° SSW
BREEZE-M TANK 4.4 23:23:36 10° WSW 23:46:56 74° NNW 23:51:26 10° ENE
Cosmos 1470 Rocket 3.7 23:48:55 61° WSW 23:49:21 66° W 23:53:40 10° N
Cosmos 2237 Rocket 2.4 23:43:43 10° NNW 23:49:22 60° ENE 23:50:31 50° ESE
Cosmos 2082 3.6 23:49:09 55° S 23:50:27 78° ESE 23:56:11 10° NNE
Cosmos 1933 Rocket 3.7 23:50:13 60° SW 23:50:46 67° W 23:55:13 10° N
IGS 5A 3.7 23:51:10 58° WSW 23:51:15 59° W 23:55:23 10° NNW
Cosmos 1709 Rocket 4.0 23:52:26 51° SE 23:53:31 59° E 23:59:30 10° NNE
DMSP B5D2-2 4.4 23:49:00 10° N 23:54:08 60° WNW 23:56:03 37° SW
